NOAA 16 DEB, 42388

Orbit data source: Space-Track

NOAA 16 DEB, 42388 is space debris in SSO originally from a launch on Thu, 21 Sep 2000 UTC launched from the Air Force Western Test Range (AFWTR). Debris objects in space refer to the collection of defunct objects orbiting the Earth. Examples of debris include non-operational satellites, rocket bodies, and fragments generated from explosions, collisions, or faulty payload assembly.

Loading next visibility...
Identifier
42388, 2000-055SG
Orbit
SSO
Country
Flag of USUS
Related business
Manufacturer
Unknown
Mission
Spacecraft
Bus & Motor
Unknown
Mass
Unknown
Launch date (UTC)
2000-09-21 (26 years ago)
Launch vehicle
Unknown
Launch site
Air Force Western Test Range (AFWTR)
Object type
Payload
Rocket body
Debris
Shape & HBR
Unknown shape, 0.1 m
Radar Cross Section
Medium (>0.1 m² and <1 m²)

Expand to show TLE details & history
Last TLE update: 1 day ago

TLE from 1 day ago
0 NOAA 16 DEB
1 42388U 00055SG  26236.34345653  .00002616  00000-0  99718-3 0  9999
2 42388  98.6000 275.4053 0017512  98.8029 261.5138 14.31602516543937
Epoch: 2026-08-24T08:14Z
TLE epoch observation values (Epoch: 2026-08-24T08:14:34.644Z)
Latitude
-0.00002°
Longitude
179.13444°
Altitude
791.186 km
Speed
7.457 km/s
True Right ascension
18h 21m 37s
True Declination
0° 00' 00"
Sunlit
Object was in full shadow at epoch
Visualization orbit readout
Latitude
Unknown
Longitude
Unknown
Altitude
Unknown
Speed
Unknown
Apparent Right ascension
Unknown
Apparent Declination
Unknown
Sunlit
N/A
Visualization observer readout
Local Sidereal Time
02:30:13
Azimuth
Unknown
Elevation
Unknown
Doppler factor
Unknown
Orbital elements
Apogee altitude
796.059 km
Perigee altitude
770.976 km
Semi-major axis
7,161.654 km
Eccentricity
0.00175
Inclination
98.6°
RAAN
275.4053°
Arg. of periapsis
98.8029°
True anomaly
261.31539°
Mean anomaly
261.5138°
Eccentric anomaly
261.41459°
Mean motion
3.58116 °/min
Orbital period
100.53 mins
BSTAR
0.00099718
Loading maneuver chart data...
Computing Atmospheric mass density...
Loading historical data...
Loading historical data...
Loading historical data...
Loading historical data...
Loading historical data...
Loading historical data...
Loading historical data...

Documentation

Showing up to 5 results
|